| time (UTC) | temp F | wind direction | speed knots | gust knots | rain 1hr in | rain 24hr in | rain mn in | humidity % | barometer mb |
| 20260504081601 | 50 | 20 | 11.3 | 16.5 | 0.00 | 0.01 | 0.00 | 49 | 1015.6 |
| 20260504044550 | 57 | 17 | 10.4 | 15.6 | 0.00 | 0.01 | 0.01 | 35 | 1009.9 |
| 20260504043057 | 58 | 20 | 8.7 | 11.3 | 0.00 | 0.01 | 0.01 | 34 | 1009.4 |
| 20260504041551 | 58 | 22 | 6.1 | 9.6 | 0.00 | 0.01 | 0.01 | 34 | 1009.1 |
| 20260504040051 | 59 | 22 | 7.0 | 11.3 | 0.00 | 0.01 | 0.01 | 33 | 1008.7 |
| 20260504034545 | 60 | 24 | 11.3 | 18.2 | 0.00 | 0.01 | 0.01 | 33 | 1008.3 |
| 20260504033051 | 61 | 36 | 10.4 | 19.1 | 0.00 | 0.01 | 0.01 | 32 | 1008.0 |
| 20260504031543 | 62 | 23 | 12.2 | 16.5 | 0.00 | 0.01 | 0.01 | 30 | 1007.7 |
| 20260504030052 | 63 | 352 | 8.7 | 13.9 | 0.00 | 0.01 | 0.01 | 25 | 1007.2 |
| 20260504024552 | 64 | 36 | 1.7 | 4.3 | 0.00 | 0.01 | 0.01 | 22 | 1006.8 |
| 20260504023046 | 66 | 34 | 5.2 | 7.8 | 0.00 | 0.01 | 0.01 | 22 | 1006.9 |
| 20260504021554 | 68 | 14 | 5.2 | 10.4 | 0.00 | 0.01 | 0.01 | 21 | 1006.9 |
| 20260504020127 | 70 | 10 | 8.7 | 13.9 | 0.00 | 0.01 | 0.01 | 20 | 1006.8 |
| 20260504014602 | 71 | 9 | 9.6 | 13.9 | 0.00 | 0.01 | 0.01 | 19 | 1006.9 |
| 20260504013059 | 72 | 348 | 10.4 | 14.8 | 0.00 | 0.01 | 0.01 | 19 | 1006.8 |
| 20260504011548 | 73 | 14 | 11.3 | 17.4 | 0.00 | 0.01 | 0.01 | 18 | 1006.9 |
| 20260504010051 | 74 | 341 | 11.3 | 16.5 | 0.00 | 0.01 | 0.01 | 18 | 1006.9 |
| 20260504004618 | 74 | 11 | 13.0 | 20.0 | 0.00 | 0.01 | 0.01 | 18 | 1007.0 |
| 20260504003053 | 75 | 347 | 7.8 | 19.1 | 0.00 | 0.01 | 0.01 | 17 | 1007.0 |
| 20260504001615 | 76 | 342 | 9.6 | 16.5 | 0.00 | 0.01 | 0.01 | 16 | 1007.1 |
| 20260503234547 | 76 | 292 | 10.4 | 16.5 | 0.00 | 0.01 | 0.01 | 16 | 1007.1 |
| 20260503233045 | 76 | 322 | 7.0 | 15.6 | 0.00 | 0.01 | 0.01 | 16 | 1007.2 |
| 20260503231552 | 76 | 275 | 8.7 | 14.8 | 0.00 | 0.01 | 0.01 | 15 | 1007.4 |
| 20260503230105 | 76 | 296 | 10.4 | 16.5 | 0.00 | 0.01 | 0.01 | 16 | 1007.6 |
| 20260503224551 | 76 | 328 | 7.0 | 16.5 | 0.00 | 0.01 | 0.01 | 15 | 1007.8 |
| 20260503223049 | 76 | 283 | 11.3 | 21.7 | 0.00 | 0.01 | 0.01 | 15 | 1008.1 |
| 20260503221556 | 76 | 284 | 4.3 | 16.5 | 0.00 | 0.01 | 0.01 | 16 | 1008.3 |
| 20260503220051 | 76 | 316 | 7.8 | 17.4 | 0.00 | 0.01 | 0.01 | 15 | 1008.4 |
| 20260503214545 | 75 | 331 | 8.7 | 16.5 | 0.00 | 0.01 | 0.01 | 17 | 1008.7 |
| 20260503213047 | 75 | 263 | 7.8 | 17.4 | 0.00 | 0.01 | 0.01 | 16 | 1008.9 |
| 20260503211554 | 75 | 314 | 8.7 | 15.6 | 0.00 | 0.01 | 0.01 | 16 | 1009.3 |
| 20260503210051 | 74 | 297 | 9.6 | 14.8 | 0.00 | 0.01 | 0.01 | 17 | 1009.5 |
| 20260503204550 | 74 | 338 | 7.8 | 14.8 | 0.00 | 0.01 | 0.01 | 17 | 1009.6 |
| 20260503203102 | 73 | 269 | 7.8 | 16.5 | 0.00 | 0.01 | 0.01 | 17 | 1009.9 |
| 20260503201546 | 73 | 260 | 7.0 | 11.3 | 0.00 | 0.01 | 0.01 | 19 | 1010.0 |
| 20260503200105 | 72 | 322 | 10.4 | 21.7 | 0.00 | 0.01 | 0.01 | 19 | 1010.4 |
| 20260503194545 | 72 | 341 | 4.3 | 12.2 | 0.00 | 0.01 | 0.01 | 20 | 1010.7 |
| 20260503193049 | 72 | 311 | 11.3 | 18.2 | 0.00 | 0.01 | 0.01 | 19 | 1011.0 |
| 20260503191551 | 71 | 299 | 9.6 | 19.1 | 0.00 | 0.01 | 0.01 | 19 | 1011.3 |
| 20260503190057 | 71 | 278 | 8.7 | 15.6 | 0.00 | 0.01 | 0.01 | 20 | 1011.4 |
| 20260503184552 | 71 | 302 | 2.6 | 14.8 | 0.00 | 0.01 | 0.01 | 20 | 1011.6 |
| 20260503183051 | 70 | 290 | 12.2 | 20.0 | 0.00 | 0.01 | 0.01 | 21 | 1011.7 |
| 20260503181559 | 70 | 269 | 4.3 | 17.4 | 0.00 | 0.01 | 0.01 | 21 | 1011.8 |
| 20260503180054 | 70 | 223 | 8.7 | 17.4 | 0.00 | 0.01 | 0.01 | 22 | 1011.9 |
| 20260503174548 | 69 | 306 | 7.8 | 14.8 | 0.00 | 0.01 | 0.01 | 23 | 1012.0 |
| 20260503173048 | 69 | 336 | 6.1 | 14.8 | 0.00 | 0.01 | 0.01 | 25 | 1012.2 |
| 20260503171556 | 68 | 333 | 7.8 | 15.6 | 0.00 | 0.01 | 0.01 | 25 | 1012.3 |